HEBOWX Weather Reports


time (UTC)temp
C
wind
direction
speed
KPH
gust
KPH
rain 1hr
cm
rain 24hr
cm
rain mn
cm
humidity
%
barometer
mb
20210927070423 12 246 33.8 57.9 0.18 2.11 2.11 97 1009.2
20210927065923 12 186 27.4 57.9 0.18 2.08 2.08 97 1009.1
20210927065424 12 239 30.6 57.9 0.13 2.06 2.06 97 1009.2
20210927064923 12 224 25.7 41.8 0.13 2.03 2.03 97 1009.2
20210927064423 12 233 24.1 72.4 0.08 2.01 2.01 97 1009.2
20210927063923 12 229 29.0 72.4 0.08 1.98 1.98 97 1009.2
20210927063425 12 243 24.1 72.4 0.05 1.96 1.96 97 1009.3
20210927062924 12 245 24.1 57.9 0.05 1.93 1.93 97 1009.3
20210927062423 12 235 32.2 57.9 0.05 1.93 1.93 97 1009.3
20210927061923 12 222 32.2 56.3 0.05 1.91 1.91 97 1009.4
20210927061423 12 256 38.6 56.3 0.10 1.91 1.91 97 1009.5
20210927060923 12 257 24.1 56.3 0.10 1.91 1.91 97 1009.5
20210927060423 12 245 24.1 59.5 0.18 1.91 1.91 97 1009.6
20210927055923 12 235 35.4 59.5 0.18 1.91 1.91 97 1009.6
20210927055423 12 235 25.7 59.5 0.18 1.91 1.91 97 1009.6
20210927054923 12 236 38.6 56.3 0.18 1.91 1.91 97 1009.6
20210927054423 12 247 30.6 56.3 0.20 1.91 1.91 97 1009.5
20210927053923 12 250 30.6 72.4 0.20 1.91 1.91 97 1009.6
20210927053423 12 246 37.0 72.4 0.23 1.88 1.88 97 1009.6
20210927052923 12 219 24.1 72.4 0.23 1.88 1.88 97 1009.6
20210927052424 12 253 30.6 54.7 0.28 1.85 1.85 97 1009.6
20210927051923 12 260 33.8 54.7 0.28 1.85 1.85 97 1009.5
20210927051423 12 254 32.2 64.4 0.33 1.83 1.83 97 1009.5
20210927050923 12 249 30.6 64.4 0.33 1.80 1.80 97 1009.5
20210927050424 12 239 37.0 64.4 0.46 1.75 1.75 97 1009.5
20210927045923 12 236 35.4 61.2 0.46 1.73 1.73 97 1009.5
20210927045423 12 247 30.6 61.2 0.61 1.73 1.73 97 1009.5
20210927044923 12 243 35.4 53.1 0.61 1.73 1.73 96 1009.3
20210927044423 12 242 37.0 69.2 0.64 1.70 1.70 96 1009.3
20210927043923 12 260 40.2 69.2 0.64 1.70 1.70 96 1009.3
20210927043423 12 260 41.8 69.2 0.61 1.68 1.68 96 1009.4
20210927042923 12 240 37.0 69.2 0.61 1.65 1.65 96 1009.4
20210927042423 12 247 35.4 69.2 0.61 1.60 1.63 96 1009.3
20210927041926 12 235 32.2 69.2 0.61 1.57 1.57 97 1009.5
20210927041423 12 229 32.2 70.8 0.58 1.52 1.52 96 1009.2
20210927040923 12 236 32.2 70.8 0.58 1.47 1.47 97 1009.3
20210927040423 12 242 33.8 70.8 0.43 1.35 1.37 96 1009.2
20210927035923 13 247 41.8 70.8 0.43 1.27 1.27 96 1009.3
20210927035423 13 270 35.4 70.8 0.33 1.14 1.14 97 1009.3
20210927034923 13 245 45.1 70.8 0.33 1.12 1.12 97 1009.2
20210927034423 13 253 30.6 70.8 0.33 1.09 1.09 97 1009.3
20210927033423 13 219 37.0 67.6 0.36 1.07 1.07 96 1009.0
20210927032923 13 267 35.4 67.6 0.36 1.04 1.04 97 1009.2
20210927032423 13 250 43.5 80.5 0.36 1.02 1.02 96 1009.1
20210927031923 13 219 45.1 80.5 0.36 0.97 0.99 96 1009.1
20210927031423 13 264 38.6 80.5 0.33 0.91 0.94 96 1008.8
20210927030923 13 222 38.6 72.4 0.33 0.89 0.89 96 1009.0
20210927030423 13 239 32.2 72.4 0.38 0.86 0.86 97 1009.3
20210927025923 13 233 41.8 72.4 0.38 0.84 0.84 96 1009.1
20210927025423 13 229 41.8 62.8 0.41 0.81 0.81 96 1009.1
20210927024923 13 261 40.2 62.8 0.41 0.79 0.79 96 1009.2
20210927024423 13 249 40.2 59.5 0.43 0.76 0.76 96 1009.2
20210927023923 13 238 37.0 59.5 0.43 0.74 0.74 96 1009.1
20210927022923 13 259 35.4 74.0 0.43 0.69 0.69 96 1009.0
20210927022423 13 254 38.6 74.0 0.41 0.66 0.66 96 1009.1
20210927021923 13 249 41.8 74.0 0.41 0.61 0.61 96 1008.8
20210927021423 13 247 35.4 67.6 0.41 0.58 0.61 95 1008.7
20210927020923 13 215 38.6 66.0 0.41 0.56 0.56 96 1008.7
20210927020423 13 245 38.6 66.0 0.36 0.51 0.51 95 1008.8
20210927015923 13 253 30.6 66.0 0.36 0.46 0.46 96 1008.8
20210927015423 13 221 25.7 66.0 0.30 0.41 0.43 96 1008.6
20210927014923 13 229 37.0 66.0 0.30 0.38 0.38 95 1008.8
20210927013923 13 208 27.4 59.5 0.25 0.30 0.30 95 1008.8
20210927013423 13 243 25.7 59.5 0.23 0.28 0.28 95 1008.7
20210927012923 13 242 35.4 75.6 0.23 0.25 0.25 95 1008.8
20210927012423 13 233 37.0 75.6 0.20 0.23 0.23 95 1008.6
20210927011923 13 214 37.0 75.6 0.20 0.20 0.20 95 1008.7
20210927011423 13 219 35.4 74.0 0.15 0.18 0.18 94 1008.7
20210927010923 13 261 29.0 74.0 0.15 0.15 0.15 94 1008.8
20210927010423 13 238 40.2 64.4 0.10 0.13 0.13 94 1008.7
20210927005923 13 225 35.4 61.2 0.10 0.10 0.10 94 1008.8
20210927005423 13 208 30.6 61.2 0.08 0.08 0.08 94 1009.0
20210927004923 13 218 40.2 61.2 0.08 0.08 0.08 93 1009.1
20210927004423 13 208 29.0 75.6 0.05 0.05 0.05 93 1009.2
20210927003923 13 215 29.0 75.6 0.05 0.05 0.05 92 1009.1
20210927003423 13 222 40.2 75.6 0.03 0.05 0.05 92 1009.1
20210927002923 13 221 35.4 61.2 0.03 0.03 0.03 92 1009.2
20210927002423 13 204 29.0 61.2 0.00 0.00 0.00 91 1009.3
20210927001923 13 224 30.6 59.5 0.00 0.00 0.00 90 1009.3
20210927001423 13 245 27.4 53.1 0.00 0.00 0.00 91 1009.3
20210927000923 13 197 32.2 53.1 0.00 0.00 0.00 90 1009.3
20210927000423 13 219 22.5 53.1 0.00 0.00 0.00 90 1009.4
20210926235923 13 232 25.7 49.9 0.00 0.00 0.00 90 1009.4
20210926235423 13 161 24.1 53.1 0.00 0.00 0.00 89 1009.4
20210926234923 13 245 30.6 53.1 0.00 0.00 0.00 89 1009.5
20210926234423 13 197 30.6 53.1 0.00 0.00 0.00 89 1009.6
20210926233923 13 198 24.1 48.3 0.00 0.00 0.00 88 1009.9
20210926233424 13 228 24.1 48.3 0.00 0.00 0.00 87 1010.0
20210926232923 13 179 24.1 48.3 0.00 0.00 0.00 87 1010.3
20210926231923 13 205 22.5 53.1 0.00 0.00 0.00 86 1010.3
20210926231423 13 212 29.0 53.1 0.00 0.00 0.00 86 1010.4
20210926230923 13 224 24.1 46.7 0.00 0.00 0.00 85 1010.4
20210926230423 13 235 30.6 46.7 0.00 0.00 0.00 85 1010.6
20210926225923 13 214 25.7 46.7 0.00 0.00 0.00 85 1010.6
20210926225423 13 212 25.7 40.2 0.00 0.00 0.00 84 1010.8
20210926224923 13 247 22.5 49.9 0.00 0.00 0.00 83 1010.9
20210926224425 14 224 25.7 49.9 0.00 0.00 0.00 82 1011.1
20210926223423 14 228 24.1 48.3 0.00 0.00 0.00 81 1011.2
20210926222922 15 249 20.9 48.3 0.00 0.00 0.00 80 1011.1
20210926221922 15 266 24.1 40.2 0.00 0.00 0.00 79 1011.3
20210926221423 15 226 25.7 40.2 0.00 0.00 0.00 78 1011.4
20210926220923 15 208 25.7 41.8 0.00 0.00 0.00 77 1011.3
20210926220422 15 224 20.9 41.8 0.00 0.00 0.00 77 1011.3
20210926215923 16 207 32.2 41.8 0.00 0.00 0.00 76 1011.3
20210926214922 16 193 22.5 35.4 0.00 0.00 0.00 76 1011.4
20210926214422 16 211 24.1 35.4 0.00 0.00 0.00 76 1011.4
20210926213922 16 190 17.7 29.0 0.00 0.00 0.00 77 1011.5
20210926213422 16 214 17.7 29.0 0.00 0.00 0.00 76 1011.8
20210926212923 16 240 17.7 29.0 0.00 0.00 0.00 75 1011.9
20210926211922 16 242 20.9 27.4 0.00 0.00 0.00 75 1011.9
20210926211423 16 226 19.3 27.4 0.00 0.00 0.00 75 1012.0
20210926210922 16 175 11.3 32.2 0.00 0.00 0.00 75 1012.0
20210926210423 16 182 16.1 32.2 0.00 0.00 0.00 74 1012.1
20210926205924 16 198 16.1 32.2 0.00 0.00 0.00 75 1012.1
20210926205423 16 151 16.1 29.0 0.00 0.00 0.00 75 1012.1
20210926204922 16 184 14.5 29.0 0.00 0.00 0.00 76 1012.2
20210926204432 16 149 14.5 29.0 0.00 0.00 0.00 76 1012.3
20210926203922 16 186 8.0 24.1 0.00 0.00 0.00 77 1012.3
20210926203422 16 210 9.7 24.1 0.00 0.00 0.00 77 1012.4
20210926202922 16 201 14.5 24.1 0.00 0.00 0.00 77 1012.5
20210926202423 15 154 11.3 24.1 0.00 0.00 0.00 77 1012.5
20210926201922 15 134 12.9 24.1 0.00 0.00 0.00 78 1012.5
20210926201422 15 215 8.0 24.1 0.00 0.00 0.00 79 1012.5
20210926200922 15 190 12.9 24.1 0.00 0.00 0.00 79 1012.5
20210926200422 15 193 6.4 24.1 0.00 0.00 0.00 79 1012.7
20210926195923 15 242 14.5 24.1 0.00 0.00 0.00 79 1012.8
20210926195422 15 226 8.0 24.1 0.00 0.00 0.00 79 1012.8
20210926194922 15 242 9.7 24.1 0.00 0.00 0.00 79 1012.8
20210926194422 15 210 3.2 19.3 0.00 0.00 0.00 79 1012.8
20210926193924 15 198 14.5 29.0 0.00 0.00 0.00 79 1012.9
20210926193422 15 222 14.5 29.0 0.00 0.00 0.00 80 1012.8
20210926192922 14 196 9.7 29.0 0.00 0.00 0.00 80 1012.8
20210926190922 14 158 17.7 24.1 0.00 0.00 0.00 81 1012.9
20210926190422 14 187 17.7 24.1 0.00 0.00 0.00 81 1012.9
20210926185922 14 207 11.3 20.9 0.00 0.00 0.00 81 1013.0
20210926185424 14 210 8.0 22.5 0.00 0.00 0.00 81 1013.0
20210926184922 14 187 11.3 22.5 0.00 0.00 0.00 82 1012.9
20210926184422 14 193 8.0 22.5 0.00 0.00 0.00 82 1012.9
20210926183922 13 176 6.4 22.5 0.00 0.00 0.00 82 1012.9
20210926183422 14 201 12.9 25.7 0.00 0.00 0.00 82 1012.8
20210926182922 13 197 14.5 25.7 0.00 0.00 0.00 83 1012.8
20210926182425 13 180 16.1 25.7 0.00 0.00 0.00 82 1012.8
20210926181923 13 191 6.4 20.9 0.00 0.00 0.00 83 1012.8
20210926181422 13 194 12.9 20.9 0.00 0.00 0.00 83 1012.9
20210926180922 13 180 14.5 20.9 0.00 0.00 0.00 84 1012.8
20210926180422 13 194 12.9 22.5 0.00 0.00 0.00 84 1012.9
20210926175922 13 197 16.1 22.5 0.00 0.00 0.00 84 1013.0
20210926174922 13 200 16.1 19.3 0.00 0.00 0.00 85 1012.8
20210926174422 13 183 16.1 19.3 0.00 0.00 0.00 85 1013.0
20210926173424 13 43 14.5 22.5 0.00 0.00 0.00 86 1013.0
20210926172925 12 179 16.1 22.5 0.00 0.00 0.00 87 1013.1
20210926172424 12 210 16.1 22.5 0.00 0.00 0.00 87 1013.1
20210926171923 12 203 17.7 25.7 0.00 0.00 0.00 63 1013.0
20210926170922 11 194 16.1 25.7 0.00 0.00 0.00 89 1013.2
20210926170422 11 207 16.1 25.7 0.00 0.00 0.00 89 1013.3
20210926165923 11 228 19.3 25.7 0.00 0.00 0.00 89 1013.3
20210926164922 11 205 19.3 25.7 0.00 0.00 0.00 89 1013.4
20210926164423 11 225 19.3 29.0 0.00 0.00 0.00 89 1013.3
20210926163922 11 219 20.9 29.0 0.00 0.00 0.00 90 1013.3
20210926162922 10 245 24.1 33.8 0.00 0.00 0.00 90 1013.3
20210926162424 10 233 24.1 33.8 0.00 0.00 0.00 90 1013.3
20210926161922 10 242 22.5 33.8 0.00 0.00 0.00 90 1013.3
20210926161422 10 225 27.4 33.8 0.00 0.00 0.00 90 1013.3
20210926160923 10 233 24.1 37.0 0.00 0.00 0.00 91 1013.4
20210926160422 10 222 20.9 37.0 0.00 0.00 0.00 91 1013.5
20210926155922 10 212 22.5 37.0 0.00 0.00 0.00 91 1013.5
20210926154922 10 228 25.7 32.2 0.00 0.00 0.00 91 1013.4
20210926154422 10 228 20.9 40.2 0.00 0.00 0.00 92 1013.4
20210926153924 10 243 22.5 40.2 0.00 0.00 0.00 92 1013.4
20210926153422 10 208 19.3 40.2 0.00 0.00 0.00 92 1013.3
20210926152922 10 193 27.4 40.2 0.00 0.00 0.00 92 1013.3
20210926152422 9 231 27.4 41.8 0.00 0.00 0.00 92 1013.2
20210926151922 9 198 24.1 41.8 0.00 0.00 0.00 91 1013.2
20210926151422 9 236 27.4 41.8 0.00 0.00 0.00 92 1013.2
20210926150922 9 240 29.0 41.8 0.00 0.00 0.00 92 1013.1
20210926150422 9 239 24.1 41.8 0.00 0.00 0.00 91 1013.2
20210926145922 9 224 33.8 41.8 0.00 0.00 0.00 92 1013.4
20210926145422 9 240 29.0 45.1 0.00 0.00 0.00 91 1013.3
20210926144922 9 240 32.2 45.1 0.00 0.00 0.00 91 1013.4
20210926144422 9 242 24.1 45.1 0.00 0.00 0.00 91 1013.5
20210926143922 9 239 27.4 38.6 0.00 0.00 0.00 91 1013.4
20210926143422 9 247 24.1 40.2 0.00 0.00 0.00 91 1013.4
20210926142922 10 254 22.5 40.2 0.00 0.00 0.00 91 1013.3
20210926142422 10 257 20.9 40.2 0.00 0.00 0.00 91 1013.3
20210926141922 10 249 20.9 38.6 0.00 0.00 0.00 91 1013.5
20210926141422 10 233 27.4 38.6 0.00 0.00 0.00 91 1013.4
20210926140922 10 254 22.5 41.8 0.00 0.00 0.00 91 1013.4
20210926140422 10 246 17.7 41.8 0.00 0.00 0.00 91 1013.4
20210926135922 10 236 30.6 41.8 0.00 0.00 0.00 91 1013.3
20210926134921 10 214 20.9 35.4 0.00 0.00 0.00 91 1013.5
20210926134423 10 229 24.1 38.6 0.00 0.00 0.00 91 1013.4
20210926133924 10 191 19.3 38.6 0.00 0.00 0.00 91 1013.4
20210926133421 10 232 20.9 38.6 0.00 0.00 0.00 91 1013.3
20210926132921 10 228 27.4 37.0 0.00 0.00 0.00 91 1013.5
20210926132425 10 253 22.5 37.0 0.00 0.00 0.00 91 1013.4
20210926131921 10 257 24.1 37.0 0.00 0.00 0.00 91 1013.5
20210926131422 10 235 25.7 37.0 0.00 0.00 0.00 91 1013.7
20210926130921 10 224 22.5 35.4 0.00 0.00 0.00 91 1013.4
20210926130421 10 229 24.1 35.4 0.00 0.00 0.00 91 1013.3
20210926125921 10 215 19.3 33.8 0.00 0.00 0.00 91 1013.5
20210926124921 10 263 16.1 40.2 0.00 0.00 0.00 91 1013.5
20210926123921 10 205 20.9 40.2 0.00 0.00 0.00 91 1013.0
20210926123421 10 203 20.9 43.5 0.00 0.00 0.00 91 1013.4
20210926122921 10 229 19.3 43.5 0.00 0.00 0.00 91 1013.4
20210926121921 10 198 16.1 43.5 0.00 0.00 0.00 91 1013.0
20210926121421 10 197 25.7 48.3 0.00 0.00 0.00 91 1012.7
20210926120921 10 219 27.4 48.3 0.00 0.00 0.00 91 1013.0
20210926120422 10 240 37.0 48.3 0.00 0.00 0.00 91 1013.0
20210926115921 10 228 27.4 43.5 0.00 0.00 0.00 91 1012.7
20210926115422 10 203 29.0 38.6 0.00 0.00 0.00 91 1013.0
20210926114922 10 218 20.9 38.6 0.00 0.00 0.00 92 1012.8
20210926114421 10 245 25.7 37.0 0.00 0.00 0.00 91 1013.3
20210926113921 10 260 20.9 32.2 0.00 0.00 0.00 91 1013.7
20210926113421 10 236 25.7 41.8 0.00 0.00 0.00 91 1013.7
20210926112921 10 249 22.5 41.8 0.00 0.00 0.00 91 1013.3
20210926111921 10 236 25.7 38.6 0.00 0.00 0.00 91 1013.2
20210926111421 10 231 19.3 38.6 0.00 0.00 0.00 91 1013.4
20210926110921 10 256 27.4 38.6 0.00 0.00 0.00 91 1013.4
20210926110423 10 252 30.6 43.5 0.00 0.00 0.00 90 1013.2
20210926105921 10 242 33.8 43.5 0.00 0.00 0.00 90 1013.3
20210926105423 10 263 24.1 43.5 0.00 0.00 0.00 90 1013.2
20210926104921 10 260 19.3 35.4 0.00 0.00 0.00 90 1013.4
20210926104422 10 239 24.1 35.4 0.00 0.00 0.00 90 1013.2
20210926103921 10 235 22.5 33.8 0.00 0.00 0.00 90 1012.9
20210926103422 10 247 20.9 35.4 0.00 0.00 0.00 90 1012.9
20210926102921 10 214 22.5 35.4 0.00 0.00 0.00 90 1013.0
20210926101921 10 254 20.9 37.0 0.00 0.00 0.00 90 1013.4
20210926101421 10 249 19.3 37.0 0.00 0.00 0.00 90 1013.8
20210926100921 10 259 20.9 37.0 0.00 0.00 0.00 90 1013.7
20210926100422 10 247 25.7 37.0 0.00 0.00 0.00 90 1013.9
20210926095921 10 264 24.1 41.8 0.00 0.00 0.00 90 1014.0
20210926095424 10 253 29.0 41.8 0.00 0.00 0.00 89 1013.9
20210926094921 10 235 32.2 41.8 0.00 0.00 0.00 89 1013.8
20210926094422 10 268 29.0 40.2 0.00 0.00 0.00 89 1013.5
20210926093921 10 253 27.4 37.0 0.00 0.00 0.00 89 1013.7
20210926093421 10 264 24.1 35.4 0.00 0.00 0.00 88 1013.7
20210926092921 10 238 17.7 32.2 0.00 0.00 0.00 88 1013.7
20210926091921 11 238 24.1 32.2 0.00 0.00 0.00 88 1013.2
20210926091421 11 268 16.1 29.0 0.00 0.00 0.00 88 1013.4
20210926090921 11 263 17.7 30.6 0.00 0.00 0.00 88 1013.5
20210926090421 11 226 17.7 30.6 0.00 0.00 0.00 88 1013.0
20210926085921 11 257 12.9 30.6 0.00 0.00 0.00 88 1013.0
20210926085422 11 254 22.5 37.0 0.00 0.00 0.00 88 1013.1
20210926084921 11 275 22.5 37.0 0.00 0.00 0.00 88 1013.1
20210926084422 11 282 20.9 37.0 0.00 0.00 0.00 87 1013.2
20210926083921 11 273 22.5 37.0 0.00 0.00 0.00 87 1013.2
20210926083421 11 263 25.7 38.6 0.00 0.00 0.00 87 1013.3
20210926082923 11 249 24.1 38.6 0.00 0.00 0.00 86 1013.2
20210926081921 11 261 24.1 30.6 0.00 0.00 0.00 86 1012.9
20210926081422 11 247 17.7 25.7 0.00 0.00 0.00 86 1012.8
20210926080921 11 263 22.5 35.4 0.00 0.00 0.00 86 1013.0
20210926080421 11 261 20.9 35.4 0.00 0.00 0.00 86 1013.0
20210926075921 11 260 27.4 35.4 0.00 0.00 0.00 85 1013.1
20210926074921 11 256 20.9 29.0 0.00 0.00 0.00 85 1013.0
20210926074421 11 267 16.1 30.6 0.00 0.00 0.00 85 1013.0
20210926073921 11 264 22.5 30.6 0.00 0.00 0.00 84 1013.0
20210926073421 11 260 14.5 30.6 0.00 0.00 0.00 84 1013.0
20210926072921 11 254 25.7 29.0 0.00 0.00 0.00 84 1013.0
20210926071921 11 256 17.7 24.1 0.00 0.00 0.00 83 1013.1
20210926071421 11 267 16.1 24.1 0.00 0.00 0.00 83 1013.3
20210926070921 11 246 16.1 24.1 0.00 0.00 0.00 83 1013.0